ChubuSat-2 (41338 NORAD) Tracking and Keplerian Element Data

This shows tracking and keplerian element data for the satellite.

Feedback or suggestion? Click here.




ElementValue
Catalog41338
NameChubuSat-2
Epoch Orbit17358
Epoch Day107.61133463
Epoch Year2019
RAAN179.2902
Inclination31.0022
Eccentricity0.0013759
Argument of Perigee208.6709
Mean Anonmoly151.317
Mean Motion15.00125102
Decay Rate3.38E-06
L11 41338U 16012B 19107.61133463 .00000338 00000-0 19549-4 0 9990
L22 41338 031.0022 179.2902 0013759 208.6709 151.3170 15.00125102173585

Live tracking and technical data element details for ChubuSat-2 (NORAD 41338). ChubuSat-2 can be tracked NOW for your location showing map with azimuth and elevation plus other details from your city location.

Track the satellite on the map from your city or location and see movement details for azimuth, elevation, latitude, longitude, range, height, and movement on the map or in text.







IsCatalogInMostPopularTable: catalog: 41338, numindb: 168
Update: records affected: 1



GetName: 41338 ChubuSat-2

Hit Count: updated at: Wed, 24 Apr 2019 17:55:53 GMT